Temp
24 23 22 22 23 24 25 24 23 24 23 23 23 22 23 22 22 24 26 26 27 25 24 25 26 26 26 25 25 23 21 20 19 19 19 19 18 18 18 17 17 17 17 16 16 17 17 17 18 18 17 17 17 17 16 16 17 17 16 16 16 17 17 17 17 17 16 16 17 17 17 17 16 16 16 16 16 16 17 17 17 17 17 17 17 17
24 22 22 23 24 24 25 24 23 23 23 23 23 22 23 23 23 25 26 26 27 25 24 25 25 26 26 25 25 22 21 20 19 19 19 19 18 18 18 17 17 17 17 16 16 16 17 17 17 17 17 17 17 17 16 16 16 16 16 16 16 16 16 17 17 17 16 16 17 17 17 16 16 16 16 16 16 16 16 16 16 17 17 17 17 16
22 22 23 24 24 23 24 24 23 23 24 23 23 22 22 23 24 25 26 27 27 26 25 25 24 25 26 26 25 23 21 20 19 19 19 19 19 18 18 17 17 17 16 16 16 16 16 16 17 17 17 17 17 17 17 16 16 16 16 16 16 16 16 16 17 16 16 17 17 17 17 17 16 16 16 16 16 16 16 16 16 16 16 17 16 16
21 22 24 24 23 23 23 24 24 24 24 23 23 22 22 23 23 23 25 26 27 27 26 26 25 25 26 26 25 24 23 22 20 19 19 19 19 19 18 18 17 17 17 17 16 16 16 16 16 17 17 17 17 17 17 17 16 16 16 16 16 16 16 17 17 17 17 17 17 17 17 17 17 16 16 16 16 16 16 16 16 16 16 16 16 16
22 24 25 24 24 24 23 24 24 24 23 24 24 23 23 24 23 23 24 25 26 26 27 26 23 23 25 26 25 25 24 23 21 20 19 19 20 19 18 18 17 17 17 17 16 16 16 16 16 16 17 17 17 17 17 17 17 16 16 16 16 17 17 17 17 17 17 17 17 17 16 16 16 16 16 16 16 16 16 16 16 16 15 16 16 16
24 25 25 25 25 24 23 24 25 24 23 23 25 25 24 24 24 23 24 24 23 23 25 25 21 21 24 25 25 25 24 24 23 21 19 19 19 19 18 18 17 17 17 17 17 16 16 16 16 16 16 17 17 17 17 17 17 17 17 17 17 17 17 17 17 17 17 17 17 17 16 16 16 15 15 15 15 15 15 15 15 15 15 15 15 15
25 25 25 24 25 25 24 24 24 25 23 22 24 24 24 24 24 23 23 23 21 21 24 24 22 21 22 24 26 25 24 25 24 21 19 19 19 18 18 17 17 17 17 17 17 17 16 16 16 16 16 16 17 17 17 17 17 17 17 17 17 17 17 17 17 17 17 17 17 17 16 16 16 15 15 15 15 15 15 15 15 15 15 15 15 15
24 24 23 24 24 24 24 24 24 25 23 22 24 24 24 24 23 23 23 22 21 22 23 23 22 21 21 24 26 25 24 25 25 22 19 19 19 19 18 18 17 17 17 17 17 17 17 16 16 16 16 16 17 17 17 17 17 17 17 16 16 16 16 16 17 17 17 17 16 16 16 15 15 15 15 14 15 14 15 15 15 15 15 15 15 15
24 23 23 23 23 23 24 24 24 25 23 23 24 24 24 23 23 23 23 22 21 21 21 22 22 21 20 23 25 25 24 24 24 22 19 19 19 19 18 18 18 18 17 17 17 17 17 16 16 16 16 16 17 17 17 17 17 17 16 16 16 16 16 16 16 16 16 16 16 16 16 15 15 15 14 14 14 14 14 14 14 14 14 15 15 15
23 23 23 24 23 23 24 24 24 24 24 24 25 24 24 23 23 23 22 22 21 21 20 21 21 21 20 22 24 23 23 23 23 22 20 19 19 19 18 18 18 18 17 17 17 17 17 16 16 16 16 16 17 17 17 17 17 16 16 16 16 16 16 16 16 16 16 16 16 16 15 15 15 15 14 14 14 14 14 14 14 14 14 14 14 14
22 23 24 24 23 23 24 24 24 24 24 25 24 23 24 23 22 22 22 21 21 20 20 21 21 21 20 21 22 22 22 22 23 23 21 19 19 19 19 18 18 18 18 18 18 17 16 16 16 16 16 16 16 17 17 17 16 16 16 16 16 16 16 16 16 16 16 16 16 15 15 15 15 14 14 14 14 14 14 14 14 14 14 14 14 14
22 23 23 24 24 23 23 24 24 24 24 24 23 22 22 22 21 21 21 21 20 20 20 21 21 21 20 21 22 22 23 23 23 24 22 20 19 19 19 19 18 18 18 18 18 17 16 16 16 16 16 16 16 16 17 16 16 16 16 16 16 16 16 16 16 16 15 15 15 15 15 15 15 14 14 14 14 14 14 14 14 14 13 13 13 13
22 22 22 23 23 23 22 22 22 23 23 23 22 21 21 20 20 20 20 20 20 20 20 21 21 21 20 21 22 22 23 23 23 23 23 21 20 19 19 19 19 19 18 18 18 17 16 16 15 15 15 15 16 16 16 16 16 16 16 16 16 16 16 16 15 15 15 15 15 15 15 15 15 14 14 14 14 14 14 14 14 13 13 13 13 13
20 21 22 22 22 22 21 20 19 20 21 21 21 21 20 20 19 19 19 19 19 20 20 20 21 20 20 21 23 23 23 23 22 23 23 22 20 20 19 19 19 19 19 18 18 17 17 16 15 15 15 15 15 16 16 16 16 16 16 16 16 16 16 15 15 15 15 15 15 15 15 15 15 14 14 14 14 14 14 14 14 13 13 13 13 13
19 20 21 21 21 21 21 20 20 20 20 20 21 21 20 20 20 19 19 19 19 19 19 20 21 20 20 22 23 23 23 23 22 22 22 22 21 20 20 19 19 19 19 18 18 17 17 16 16 15 15 15 15 16 16 16 16 16 16 16 16 16 16 15 15 15 15 15 15 15 15 15 15 15 14 14 14 14 14 14 13 13 13 13 13 13
18 19 20 20 21 21 20 20 21 20 20 20 21 21 20 20 20 19 19 19 19 18 19 20 20 20 21 23 22 22 23 24 23 22 21 21 21 20 19 19 19 19 19 18 18 17 17 16 16 16 16 15 15 16 16 16 16 16 16 16 16 16 16 15 15 15 15 15 15 15 15 15 15 14 14 14 14 14 14 14 13 13 13 13 13 13
18 18 19 20 20 21 20 20 20 19 19 19 19 19 19 20 20 19 18 18 18 18 18 19 20 20 21 22 22 22 23 23 22 22 21 21 20 20 19 19 19 19 19 18 18 17 17 16 16 16 16 15 15 16 16 16 16 16 16 16 16 16 16 15 15 15 15 15 15 15 15 15 15 14 14 14 14 14 14 14 13 13 13 13 13 13
17 17 19 20 20 20 20 20 19 18 18 18 18 18 19 20 20 19 18 18 18 17 18 19 19 20 20 20 21 21 21 21 21 22 22 21 20 20 19 19 19 19 19 18 18 17 17 16 16 16 16 16 16 16 16 16 16 16 16 16 16 16 16 16 15 15 15 15 15 15 15 15 15 15 14 14 14 14 14 13 13 13 13 13 13 13
17 17 18 19 18 18 19 20 18 17 18 18 18 18 18 18 18 18 18 17 17 17 17 18 19 19 20 20 21 21 20 20 20 21 21 20 20 20 19 19 19 19 18 18 18 18 17 17 16 16 16 16 16 16 16 16 16 16 16 16 16 16 16 16 16 15 15 15 15 15 15 15 15 14 14 14 14 14 14 13 13 13 13 13 13 13
18 17 17 18 17 18 19 18 17 17 18 18 18 17 16 16 16 17 17 17 17 17 17 17 18 19 19 19 19 20 19 19 19 20 20 20 20 19 19 18 18 18 18 18 18 18 17 17 16 16 16 16 16 16 16 16 16 16 16 16 16 16 16 16 16 16 15 15 15 15 15 15 15 14 14 14 14 14 14 13 13 13 13 13 13 13
17 17 16 17 17 17 17 17 16 17 17 17 16 15 14 15 16 16 17 17 17 17 16 16 17 18 18 16 16 17 17 18 18 19 19 20 20 20 19 18 18 18 18 18 18 18 17 17 17 17 17 16 16 16 16 16 16 16 16 16 16 16 16 16 16 16 16 15 15 15 15 15 15 14 14 14 14 14 14 14 13 13 13 13 13 13
17 16 16 16 16 16 16 17 17 17 17 16 16 14 13 14 15 15 16 16 16 16 15 14 15 17 17 15 15 16 16 16 17 17 19 19 19 20 20 19 18 18 18 18 18 18 17 16 16 17 17 16 16 16 16 16 16 16 16 16 16 16 16 16 16 16 16 16 15 16 15 15 15 14 14 14 14 14 14 13 13 13 13 13 13 13
16 16 15 15 15 16 16 17 17 16 16 15 15 14 13 13 14 15 15 15 14 14 15 14 14 16 16 14 15 15 15 16 16 16 17 18 18 19 19 19 19 18 18 18 18 18 17 16 16 17 17 16 16 16 16 16 16 16 16 16 16 16 16 16 16 16 16 16 16 16 15 15 15 14 14 14 14 14 14 13 13 13 13 13 13 12
16 15 15 15 15 16 16 16 15 15 16 15 15 14 14 14 15 15 14 14 13 14 15 14 14 16 16 14 15 15 15 15 15 15 15 16 16 17 18 19 20 19 18 18 18 18 17 17 17 16 16 16 16 16 16 16 16 16 16 16 16 16 16 16 16 16 16 16 16 16 15 15 15 14 14 14 14 14 14 13 13 13 13 13 12 12
16 15 15 14 14 15 16 15 15 15 14 14 14 15 15 15 14 14 14 13 13 14 15 14 15 16 16 15 15 15 15 15 15 15 15 15 15 15 16 17 19 20 20 18 18 18 17 17 17 16 16 16 16 16 16 16 16 16 16 16 16 16 16 16 16 16 16 16 16 15 15 15 15 14 14 14 14 14 14 14 13 13 13 12 12 12
16 15 15 14 13 13 14 14 14 14 13 13 14 15 15 14 14 13 13 13 13 14 14 14 15 16 16 15 16 15 15 15 15 15 15 15 15 14 15 16 17 19 19 19 19 18 18 17 17 16 17 17 17 16 16 16 16 16 16 15 15 16 16 16 16 16 16 16 16 15 15 15 15 14 14 14 14 14 14 14 13 13 12 12 12 11
15 15 15 14 14 13 13 13 14 13 13 13 14 15 15 14 14 13 13 13 14 14 14 14 15 15 15 15 15 15 15 15 15 15 14 14 14 14 14 15 16 17 17 18 19 18 18 18 17 16 16 16 16 15 15 15 15 15 15 15 15 15 15 15 16 16 16 16 16 15 15 15 15 15 14 14 14 14 14 13 13 12 12 12 11 11
15 15 15 14 14 14 14 14 14 13 13 13 14 15 15 14 14 13 13 13 13 13 14 14 14 13 14 14 15 15 15 15 15 14 14 14 14 14 14 14 16 16 16 17 18 18 18 18 18 16 15 14 14 14 14 14 14 15 15 15 14 14 14 15 15 16 16 16 16 15 15 15 15 15 14 14 14 14 14 13 12 12 11 11 11 10
15 15 15 14 14 15 14 14 14 14 14 14 15 14 14 13 13 13 13 13 13 12 13 14 13 13 14 14 14 14 14 14 14 14 14 14 14 14 14 14 15 16 16 16 17 17 18 18 17 15 13 13 14 14 14 15 15 14 14 14 14 13 14 15 15 16 16 16 15 15 15 15 15 14 14 14 14 14 13 13 12 11 11 11 10 10
15 15 15 14 14 14 14 15 15 14 14 15 14 13 13 13 13 13 13 13 13 12 13 13 13 13 13 13 13 14 14 13 14 14 14 14 14 14 15 15 14 15 15 16 16 15 16 17 16 14 12 13 13 13 14 14 15 15 14 14 14 13 14 15 15 15 16 16 15 15 15 15 15 15 14 14 14 13 13 12 11 11 10 10 10 9
14 14 14 14 14 14 14 15 15 14 14 14 13 12 12 12 13 13 12 12 12 12 12 12 12 13 13 13 13 13 13 13 13 14 14 14 14 14 14 14 14 15 15 15 15 15 15 15 15 13 12 13 14 14 14 15 15 15 14 14 14 14 14 15 15 15 16 16 15 15 15 15 15 14 14 14 13 13 12 11 11 10 10 10 9 9
14 14 14 14 13 13 14 15 14 13 14 13 12 12 11 11 12 12 12 12 12 12 12 12 12 12 13 13 13 13 13 13 13 13 13 13 13 14 14 14 14 15 15 15 15 16 16 16 15 14 13 13 14 14 15 15 14 14 14 15 15 15 14 14 15 15 16 16 15 15 15 15 15 14 14 14 13 12 11 11 10 10 10 9 9 9
14 14 13 13 13 13 14 14 13 13 14 13 12 11 11 11 12 12 12 12 12 12 12 12 12 12 12 13 12 12 13 12 12 12 12 13 13 13 14 14 14 15 15 15 15 16 16 16 15 14 14 15 15 14 15 15 14 15 15 15 15 15 14 14 15 16 15 15 15 15 15 15 14 14 14 13 12 11 11 11 10 10 10 9 9 9
13 13 13 12 12 14 14 14 13 13 13 12 11 11 11 12 12 12 12 12 12 12 12 12 12 12 12 12 12 12 12 12 12 12 13 13 13 13 13 14 14 15 15 15 15 16 15 14 14 14 15 15 16 15 15 15 15 15 15 15 15 15 14 14 15 15 15 15 15 15 15 14 14 14 13 12 12 11 11 10 10 10 9 9 9 9
13 14 12 11 12 13 13 13 13 13 12 11 11 11 11 12 13 12 12 12 12 12 12 13 13 13 12 13 13 12 12 13 13 13 13 13 13 13 13 14 15 15 15 15 16 16 15 14 15 16 16 16 16 15 15 15 15 15 15 15 15 15 14 14 15 15 15 15 15 15 15 14 14 13 12 12 11 11 11 10 10 10 10 9 9 9
14 13 12 12 12 13 13 12 12 12 12 11 12 12 12 12 12 12 12 12 12 12 12 12 12 12 12 13 13 13 13 13 13 13 13 13 13 13 13 14 15 15 16 16 15 15 15 15 16 17 17 17 16 16 16 16 16 15 15 16 16 15 15 15 15 15 15 15 15 15 14 14 14 13 12 12 11 11 11 10 10 10 9 9 9 9
14 13 13 13 13 12 12 12 12 13 12 12 13 13 12 12 12 12 12 12 12 12 12 12 12 12 12 12 13 13 13 13 13 14 14 14 14 14 14 14 14 15 15 15 15 15 16 17 17 17 17 17 16 16 17 17 16 16 16 15 15 15 15 15 15 15 15 15 14 14 14 14 14 13 12 12 11 11 11 10 10 9 9 9 9 9
13 13 13 13 12 12 12 11 11 12 12 12 13 13 13 12 12 12 11 12 12 12 12 12 12 12 12 12 12 12 13 13 13 14 14 14 14 14 14 14 14 15 15 15 16 16 17 17 18 17 17 17 16 16 17 17 16 16 15 14 15 15 15 15 15 15 14 15 15 14 14 14 13 13 12 12 11 11 11 11 10 10 9 9 9 8
13 12 13 13 12 12 12 11 11 11 11 12 12 13 13 12 12 12 12 12 13 12 12 12 12 12 12 12 12 12 12 13 13 14 15 15 15 15 15 15 15 15 16 16 16 16 17 17 17 17 17 17 17 16 16 16 15 15 14 14 14 14 15 15 15 14 14 15 15 14 14 14 13 13 12 12 12 11 11 11 10 10 9 9 9 8
13 12 12 13 12 12 11 11 12 12 12 12 12 13 12 12 12 12 12 12 13 13 12 11 12 12 12 12 12 12 12 13 13 14 15 15 15 14 14 15 15 14 15 17 17 17 17 17 17 17 17 17 17 16 16 16 16 15 15 15 15 14 14 15 14 14 15 15 15 14 14 13 13 12 12 12 11 11 11 10 10 10 9 9 8 8
13 12 12 12 12 12 12 12 12 12 12 12 12 12 12 12 12 12 12 13 13 13 12 12 12 12 12 12 12 12 13 13 13 14 15 14 14 14 14 14 15 15 16 17 17 17 17 17 18 17 17 17 17 16 17 16 16 15 15 15 14 14 15 15 15 15 15 15 14 14 14 13 13 12 12 11 11 11 10 10 10 10 9 9 8 8
12 12 12 12 12 12 12 12 12 12 12 12 12 12 12 12 12 12 13 13 13 13 13 12 12 12 12 12 12 12 13 13 13 13 13 14 14 14 13 13 14 15 16 17 17 17 17 17 17 17 18 17 17 16 16 16 16 16 15 14 15 15 16 15 15 15 15 15 14 14 13 13 12 12 11 11 11 11 10 10 10 9 9 8 8 8
12 12 12 12 11 11 11 11 11 12 13 12 12 13 13 13 13 13 13 13 13 13 13 12 12 13 12 12 12 13 12 13 13 13 13 13 13 13 12 12 12 13 14 16 17 17 16 16 17 17 17 17 17 16 16 16 16 16 15 15 15 16 16 16 15 15 15 14 14 13 13 13 12 11 11 11 11 10 10 10 10 9 9 8 8 8
12 12 12 12 12 11 11 11 12 13 13 13 12 13 13 13 13 13 12 12 13 13 13 12 13 13 13 12 13 13 13 13 13 13 13 13 13 12 12 12 12 12 13 14 15 16 16 16 16 16 16 17 16 16 16 16 16 16 15 15 16 16 15 15 15 15 14 14 13 13 13 12 12 11 11 11 11 10 10 10 9 9 8 8 8 8
12 13 13 12 12 12 12 13 13 14 13 13 13 13 13 13 13 13 12 12 12 13 12 13 13 13 13 13 13 13 13 13 12 12 12 12 12 12 12 12 12 12 13 14 15 16 16 16 16 16 16 16 16 16 16 16 15 15 15 16 16 16 15 15 14 14 14 13 13 13 12 12 12 11 11 11 11 11 10 9 9 9 8 8 8 8
13 12 12 12 12 13 13 13 13 13 14 14 13 13 13 13 13 13 12 12 13 13 13 13 13 13 13 13 13 13 13 13 12 12 12 12 12 12 11 11 12 13 14 14 15 15 15 15 15 15 15 15 15 15 15 15 15 15 15 16 15 15 15 14 14 14 14 13 12 12 12 12 11 11 11 11 11 11 10 10 9 9 9 8 8 8
13 12 12 12 12 12 13 13 13 13 13 14 14 14 14 14 13 13 13 13 13 14 14 13 13 13 13 13 13 12 12 12 12 12 12 12 12 11 10 9 11 12 13 14 14 14 14 15 15 15 15 15 15 15 14 14 14 15 15 15 15 14 14 14 13 13 13 12 11 11 11 12 11 11 11 11 11 11 10 10 9 9 9 9 8 8
12 12 12 12 12 12 13 13 13 13 13 14 14 14 14 14 14 14 14 14 14 14 14 13 13 13 14 13 12 12 12 12 12 12 12 11 11 11 10 9 10 11 12 13 13 13 13 14 14 14 14 14 14 14 14 14 14 14 14 14 14 14 14 13 13 13 12 12 11 11 12 12 11 11 11 11 11 10 10 10 9 9 9 9 9 8
12 12 12 12 12 12 12 13 13 13 13 14 14 14 14 13 13 14 14 14 14 14 14 13 12 12 12 12 13 13 12 12 12 12 12 12 11 10 9 9 10 10 11 12 12 12 12 13 13 13 14 14 14 14 14 13 13 14 14 14 14 13 13 13 12 12 12 12 11 12 12 12 11 11 11 11 10 10 10 9 9 9 9 9 8 8
12 12 12 12 12 12 13 13 13 12 13 13 13 13 14 13 13 14 14 14 14 14 14 14 13 12 11 12 13 13 12 13 12 12 11 11 10 10 10 10 10 10 11 11 12 12 12 13 13 13 13 13 14 14 13 13 14 14 14 14 14 13 13 12 12 12 12 11 12 12 12 11 11 11 11 11 10 10 10 9 9 9 9 8 8 8
13 13 13 13 13 13 13 14 13 12 12 13 13 13 14 13 14 14 14 14 14 14 13 13 13 13 13 12 11 12 13 13 11 11 11 11 10 10 11 11 10 10 11 11 12 12 13 13 13 13 13 13 13 13 13 13 14 14 14 14 14 13 13 12 12 11 10 10 11 12 12 11 11 11 11 11 11 10 10 9 8 8 8 8 8 7
Height
769 779 784 782 780 775 771 772 773 772 774 777 779 781 779 778 777 767 759 749 744 755 759 756 757 757 758 756 754 760 763 766 771 773 775 776 778 779 780 780 780 781 781 781 782 783 785 786 788 791 793 795 796 797 799 799 799 800 801 802 803 804 804 805 805 806 807 808 808 808 809 809 809 810 810 810 811 811 811 812 812 812 813 813 814 814
772 784 783 775 773 769 766 767 769 772 773 775 779 781 777 775 771 761 755 748 742 752 758 754 757 757 755 755 755 760 766 768 768 771 774 775 775 776 776 778 779 780 780 780 781 782 783 785 786 789 791 794 795 796 798 799 799 800 801 802 803 804 804 805 805 806 807 808 808 808 808 809 809 810 810 810 810 810 811 811 811 811 811 812 813 813
783 785 776 767 767 768 768 767 769 772 773 775 776 779 779 771 766 759 752 747 744 750 757 757 760 758 751 750 753 755 759 761 760 761 765 768 771 773 774 776 778 779 780 780 780 780 782 784 784 786 789 792 794 795 797 799 799 800 801 802 803 804 804 805 805 806 807 808 808 808 808 809 809 809 809 809 809 810 810 810 811 811 811 811 811 812
791 781 766 763 766 768 770 768 769 772 771 773 774 776 776 767 767 767 755 749 747 748 752 755 759 758 751 749 751 750 749 751 754 755 756 759 761 765 768 770 773 776 777 779 781 780 780 782 784 784 787 790 792 794 796 797 798 799 800 802 803 804 804 805 805 806 806 807 807 808 808 808 808 809 809 809 809 809 809 809 810 810 810 810 810 810
784 770 759 762 765 767 770 769 769 771 771 770 767 769 770 764 765 768 760 754 751 751 749 753 766 765 754 753 751 747 747 749 754 758 760 759 758 761 765 767 769 770 772 776 779 779 778 779 781 782 784 787 790 792 794 796 797 797 799 801 803 804 804 804 805 805 806 806 807 807 807 808 808 808 808 808 809 809 809 809 809 810 810 810 810 809
773 762 758 763 763 764 768 769 766 766 771 771 763 761 764 763 764 765 761 758 764 767 753 754 776 775 757 755 753 749 750 750 753 759 763 763 762 763 766 769 770 769 769 771 774 775 775 776 779 781 781 784 786 789 792 794 796 797 798 801 802 803 804 804 804 805 805 805 806 806 807 807 807 808 808 808 809 809 809 809 809 809 809 809 809 809
766 760 761 764 764 763 765 767 764 762 772 776 766 760 761 762 763 764 761 764 775 778 760 755 775 779 764 754 750 749 752 750 750 758 763 763 764 764 765 767 769 770 770 771 773 773 773 775 778 779 779 781 783 787 790 793 795 796 798 800 802 803 803 804 804 804 805 805 806 806 806 807 807 807 808 808 809 809 809 809 809 809 809 809 809 808
766 764 766 766 766 765 766 768 763 760 772 775 763 760 762 762 765 766 765 768 773 771 763 760 766 777 774 756 746 748 751 751 750 757 763 762 762 762 763 765 766 766 767 770 773 772 772 773 775 777 777 778 781 785 789 791 793 796 798 800 802 802 803 804 804 804 805 805 806 806 807 807 807 807 808 808 808 809 809 809 809 808 808 808 808 808
766 769 771 768 770 771 767 766 760 757 767 766 757 757 760 762 764 764 765 770 772 772 773 769 765 779 782 760 749 751 753 755 754 756 762 759 758 761 761 763 763 763 765 767 769 769 769 772 774 776 777 778 780 783 787 790 792 795 798 800 801 802 803 804 805 805 805 806 806 807 807 807 807 807 808 808 808 809 808 808 808 808 808 807 807 807
768 769 767 766 772 772 765 762 758 758 763 758 754 758 759 762 764 763 766 767 771 778 782 775 768 781 787 765 754 757 758 760 757 755 759 757 755 757 758 761 762 764 766 767 768 767 768 771 775 778 779 780 781 783 786 789 792 795 797 800 801 802 803 804 805 805 806 807 807 807 807 807 807 807 807 808 808 808 808 808 808 808 807 807 807 807
768 762 760 764 767 766 761 759 756 757 758 753 756 761 760 764 766 767 769 768 776 786 784 775 767 778 790 774 761 763 761 759 755 751 756 758 756 755 756 759 761 762 765 768 770 769 770 773 776 779 780 782 783 784 787 789 791 794 797 799 801 802 803 804 805 806 806 807 807 807 807 807 807 807 807 807 808 808 808 808 808 808 808 807 807 806
770 765 765 763 762 762 761 760 758 756 756 757 762 767 769 773 772 772 775 775 787 793 782 773 768 773 788 779 764 762 757 754 753 749 753 758 758 757 757 758 759 761 764 768 770 771 772 775 777 780 781 782 783 784 786 788 791 794 796 798 800 801 803 804 805 806 806 807 808 808 808 807 807 806 806 807 807 808 808 808 808 808 808 807 807 806
777 772 770 765 761 763 768 770 768 762 760 765 769 773 781 789 789 790 791 789 794 793 780 774 772 775 782 773 761 759 754 750 751 748 749 754 756 756 756 757 758 761 765 767 769 771 773 775 776 778 780 781 782 783 785 787 790 793 795 797 799 800 802 803 805 806 806 807 808 808 808 807 807 806 806 806 806 807 807 808 808 808 807 807 807 806
789 778 771 771 768 765 773 783 787 782 775 776 775 778 788 797 804 808 805 802 800 792 780 774 775 780 780 767 757 755 751 748 749 747 747 750 752 753 753 756 758 761 764 766 768 771 773 773 775 776 778 779 781 782 784 786 788 791 794 796 798 800 801 803 804 805 806 807 807 808 808 807 806 806 805 806 806 806 807 807 807 807 807 807 806 806
804 795 781 781 780 773 777 784 787 786 782 779 775 777 785 790 798 804 802 802 801 794 786 778 777 783 778 763 752 750 747 746 747 747 747 749 750 751 753 756 759 760 762 764 767 770 771 773 774 775 777 778 780 781 783 785 787 789 792 794 796 798 800 802 803 804 805 806 807 808 808 807 806 805 805 805 805 806 806 806 806 806 806 806 806 806
806 802 785 781 779 776 781 780 777 781 785 781 774 779 787 785 786 793 795 795 796 797 793 783 778 775 766 755 749 749 746 744 747 747 748 750 750 752 756 757 759 759 760 763 766 769 770 772 773 774 775 777 779 780 781 783 785 787 790 792 795 797 799 800 802 804 805 806 807 807 807 807 806 805 805 805 805 805 805 806 805 806 806 806 805 805
810 804 786 780 778 776 781 780 778 785 791 788 785 789 789 781 779 789 798 795 796 802 796 785 780 772 763 759 753 751 750 747 749 750 751 754 754 756 759 758 759 759 759 762 764 766 769 770 772 773 774 775 777 778 779 781 783 785 788 791 793 796 797 799 801 803 804 805 806 807 807 806 806 805 805 805 805 805 805 805 805 805 805 805 805 805
811 807 791 784 785 780 777 777 779 784 787 792 799 795 785 779 779 787 799 801 802 807 798 786 784 779 777 774 760 755 758 755 752 751 753 759 758 759 761 761 760 759 760 762 763 765 767 768 770 771 772 773 773 775 776 779 782 784 787 789 791 793 795 798 800 801 803 804 805 806 806 806 805 805 805 805 804 804 804 804 804 805 805 805 805 804
806 808 797 788 791 786 776 780 788 787 783 789 796 793 792 799 798 795 802 806 806 809 802 791 787 783 781 776 763 760 765 764 759 756 758 762 760 760 762 763 763 762 762 763 764 765 766 767 768 769 771 771 772 773 775 777 780 783 786 788 790 792 794 796 799 800 802 803 804 805 805 805 805 805 805 804 804 804 804 804 804 804 804 804 804 804
803 811 806 793 792 790 784 791 801 798 789 787 790 795 802 808 806 802 804 806 807 808 805 798 792 786 781 778 773 769 769 769 767 763 763 764 762 760 762 764 765 764 763 764 765 765 765 766 767 767 769 770 770 772 774 776 779 781 784 786 788 791 793 795 798 799 801 802 803 804 804 804 805 805 805 804 804 803 803 803 803 803 804 803 803 803
804 812 812 800 795 797 797 799 803 801 798 796 799 807 812 808 804 804 803 800 802 806 809 808 802 790 784 785 783 778 776 776 772 768 766 765 762 760 761 763 763 763 763 763 763 764 764 765 766 767 768 769 770 772 773 775 777 779 782 785 787 789 792 794 796 797 799 800 801 802 803 803 804 804 804 804 803 803 803 803 803 803 803 803 802 802
807 813 815 810 806 806 804 798 796 796 798 802 805 810 815 812 809 812 810 804 804 807 811 817 813 796 786 787 785 781 781 780 777 774 771 768 765 761 760 762 762 762 761 761 760 761 763 764 765 766 767 769 771 771 772 774 776 778 781 784 786 788 790 792 794 796 797 798 800 801 801 802 803 803 803 803 803 803 803 803 802 802 802 802 801 801
807 812 817 816 812 806 801 796 796 797 797 802 806 809 814 814 812 815 816 812 812 812 810 816 816 799 786 787 785 781 780 780 780 780 776 773 771 767 764 762 760 759 759 759 759 759 760 761 762 763 765 767 768 769 771 772 774 776 779 781 783 785 788 790 792 794 795 797 798 799 800 801 802 802 802 802 802 802 802 802 802 801 801 801 800 800
807 815 819 818 811 803 798 798 800 800 801 804 807 807 809 809 808 810 812 815 818 814 809 814 813 796 786 787 784 780 779 779 780 781 780 779 775 771 769 764 760 758 757 757 758 757 758 758 759 761 763 765 766 767 769 770 772 774 776 778 781 784 787 788 790 792 793 795 797 798 799 800 801 801 801 801 801 802 801 801 801 800 800 800 799 799
811 818 820 823 822 812 806 807 807 805 808 811 809 806 805 806 809 811 812 816 819 811 807 812 807 793 787 787 783 781 782 782 782 781 780 780 777 776 774 768 763 758 755 757 757 757 757 758 759 760 761 762 764 765 767 769 771 772 774 777 780 783 785 786 788 790 791 793 795 796 797 798 799 799 799 800 800 800 800 800 799 799 799 799 798 798
813 818 820 826 832 828 824 824 818 813 815 815 810 807 805 807 811 813 815 819 817 809 809 811 802 791 788 787 785 785 785 785 784 782 779 778 778 778 777 772 767 761 757 756 756 757 757 757 758 758 758 760 762 764 766 767 768 770 772 775 778 781 784 785 787 789 790 792 793 794 796 796 797 797 798 799 799 799 799 798 798 798 798 798 798 797
815 818 817 822 828 829 829 826 819 817 818 816 811 807 806 807 809 812 816 817 813 810 809 806 799 795 794 791 789 788 787 785 784 782 780 779 778 778 778 775 769 764 761 758 756 757 757 756 757 757 758 760 762 765 768 770 771 772 773 774 776 779 784 787 788 788 789 790 791 793 794 794 795 796 796 797 797 797 797 797 797 797 797 797 797 796
817 819 817 819 821 820 821 819 815 816 818 815 810 806 805 807 809 812 813 811 811 813 807 799 799 802 799 793 792 790 787 786 784 782 781 780 781 780 778 777 772 767 764 760 757 757 756 756 756 756 758 760 761 763 766 770 773 775 776 776 777 779 783 787 788 788 788 789 790 791 792 793 794 795 795 796 795 796 796 796 796 796 797 797 796 796
817 819 817 818 818 816 816 815 813 814 813 809 807 808 808 809 810 811 810 808 811 813 806 800 802 804 799 795 793 791 789 788 785 782 782 781 781 780 778 779 776 770 766 762 759 757 755 755 756 758 759 760 761 761 763 766 769 772 775 776 777 779 782 784 786 787 787 788 788 789 791 792 793 793 794 794 794 795 795 795 796 796 796 796 796 795
817 819 816 816 816 815 814 812 809 811 809 808 811 815 814 812 811 809 808 808 809 810 808 806 806 803 800 798 796 791 789 787 784 782 782 781 781 779 778 777 776 773 769 765 762 759 756 754 755 757 759 761 762 763 765 767 767 769 772 772 774 778 781 782 784 784 785 785 787 788 789 790 791 792 792 792 793 794 794 794 795 796 796 796 795 795
820 821 818 817 818 816 813 809 807 809 810 812 817 818 816 814 811 810 812 812 810 810 810 809 807 803 800 798 796 792 789 787 786 784 783 782 780 780 778 776 775 772 770 767 765 761 758 756 756 757 758 759 761 762 763 763 763 765 768 770 772 776 778 780 781 782 782 783 785 786 787 789 790 790 790 791 792 792 793 794 795 795 795 795 794 794
821 822 820 821 823 819 811 808 809 809 810 813 818 820 821 820 815 813 816 815 812 811 811 810 809 806 802 799 796 794 791 789 789 787 786 783 782 781 779 777 774 772 770 770 767 763 760 758 757 757 758 758 759 760 760 760 761 763 765 768 771 773 776 779 780 780 781 782 784 785 786 787 787 788 789 790 791 792 793 793 794 794 794 794 793 793
822 822 822 826 827 818 811 811 812 810 809 815 822 824 824 821 816 814 815 812 810 811 812 812 810 807 803 800 798 796 794 792 791 789 788 786 783 781 779 776 774 772 771 771 768 764 761 759 758 758 758 759 759 759 759 759 760 762 764 766 769 772 776 779 779 779 780 781 783 784 784 785 786 787 788 789 790 791 792 792 793 793 793 792 792 792
823 822 825 830 827 819 814 812 811 812 818 825 827 825 821 817 815 815 815 813 811 809 809 810 808 805 802 801 800 798 795 793 791 789 787 786 784 782 779 777 775 773 772 771 768 765 762 760 759 759 758 758 758 758 759 759 760 761 763 765 767 771 775 777 777 778 779 780 781 782 783 784 785 786 788 788 789 790 791 791 791 792 792 791 791 791
821 820 825 831 828 822 818 816 817 821 826 828 825 821 819 817 814 815 815 814 812 810 808 807 805 804 803 800 798 798 795 792 790 787 786 785 783 781 779 777 775 773 772 770 768 765 762 760 759 758 757 757 757 758 758 759 760 761 762 764 766 769 772 774 775 776 777 778 780 781 782 783 784 785 787 787 788 789 789 790 790 790 790 790 790 789
819 821 825 827 825 823 823 826 828 826 825 825 823 819 818 817 815 816 817 814 812 812 810 808 806 804 803 800 797 796 794 792 790 787 785 784 782 781 780 777 774 773 771 769 767 765 762 760 759 757 756 756 757 758 758 759 760 761 762 763 765 767 769 772 773 774 776 777 779 780 781 781 782 784 785 786 787 788 788 789 789 789 789 789 789 788
818 822 824 824 825 826 827 828 827 822 822 824 821 816 817 818 817 818 819 815 811 811 810 808 807 804 802 800 797 795 793 792 791 787 784 782 781 779 778 776 773 771 769 767 766 765 762 760 759 758 757 757 757 757 757 757 758 760 761 763 764 766 768 770 771 773 775 776 778 778 779 780 781 783 784 785 786 787 787 788 788 788 789 788 787 787
818 819 821 823 826 826 828 831 830 829 829 827 820 815 815 816 815 816 819 816 811 809 809 807 806 804 801 799 797 795 793 792 792 788 782 780 779 777 776 774 771 769 767 765 764 764 762 761 759 759 758 757 757 756 756 756 757 759 761 762 763 765 767 769 771 773 774 775 776 776 777 778 780 781 783 784 785 786 786 786 787 787 788 788 787 787
821 822 821 823 826 826 830 835 836 833 831 827 820 814 812 814 814 815 817 815 809 807 808 807 805 803 801 799 797 796 796 795 793 787 780 777 776 775 774 772 769 768 766 765 764 763 763 762 760 760 759 758 757 757 757 758 758 760 762 763 765 767 768 768 770 771 772 773 773 774 776 777 779 780 781 782 783 784 785 785 786 787 787 787 787 786
822 825 824 825 826 828 831 832 829 827 827 824 818 814 812 812 812 815 819 814 806 805 806 806 805 803 800 799 798 797 797 795 791 784 777 776 775 774 773 771 769 767 765 764 763 762 762 761 760 760 759 758 758 758 758 759 760 762 764 765 765 767 767 768 768 769 770 770 771 772 774 775 777 778 780 781 782 783 783 784 785 785 786 786 786 786
825 826 827 827 827 828 830 829 826 824 824 821 816 814 812 809 812 820 822 813 804 804 804 804 804 801 799 798 797 796 794 790 787 783 778 776 775 773 771 769 767 766 765 763 762 761 761 760 759 759 758 758 758 758 759 760 760 761 763 763 763 763 764 765 766 766 767 768 769 771 773 774 776 777 778 779 780 781 782 783 783 784 784 785 785 785
829 829 829 829 829 829 828 828 827 823 819 817 816 813 810 812 817 821 815 807 804 805 803 802 802 799 798 797 796 794 791 787 785 783 780 778 776 773 771 769 767 766 764 762 761 760 760 759 758 757 757 757 757 758 758 759 759 759 760 760 760 760 761 763 763 763 764 766 768 769 771 772 774 775 776 778 779 780 781 782 782 783 783 784 784 784
830 831 830 829 831 832 831 830 830 826 818 814 815 813 811 813 816 813 808 806 805 804 801 801 800 797 797 796 793 791 790 786 784 782 779 778 776 774 772 770 768 766 763 762 760 759 758 758 757 756 756 756 756 756 756 757 756 756 757 757 757 758 760 760 761 761 763 764 765 767 769 771 772 774 775 776 778 779 780 780 781 782 782 783 783 783
830 831 830 829 830 833 834 830 825 820 814 812 814 813 811 811 809 807 808 807 804 802 801 800 797 795 795 794 791 790 788 785 783 781 780 778 775 773 771 769 767 765 763 761 759 758 757 757 756 755 755 754 755 755 755 755 755 754 754 755 755 756 757 758 759 760 761 762 764 766 768 769 771 773 774 775 776 777 778 779 780 780 781 781 782 781
827 826 826 827 826 826 826 821 816 813 812 812 812 810 808 807 805 805 807 806 803 801 800 798 796 794 792 791 790 788 786 784 783 781 780 778 775 773 771 768 766 764 762 760 759 758 757 756 755 755 754 753 753 754 753 753 753 752 752 752 753 754 754 756 758 759 759 760 762 764 766 768 770 771 772 774 775 776 776 777 778 779 780 780 780 780
822 823 824 824 823 821 818 815 813 813 811 809 809 807 806 805 803 803 803 803 801 799 797 796 794 792 790 790 789 787 785 783 782 781 779 777 775 773 771 768 766 763 761 760 759 758 756 755 754 753 752 752 752 752 752 752 751 750 749 750 750 751 752 754 756 757 757 758 759 762 765 766 768 769 771 772 773 774 775 775 776 777 778 778 779 779
821 823 824 823 823 823 819 813 812 812 811 808 806 805 803 802 801 801 801 800 798 796 795 794 792 790 789 789 788 787 785 782 781 780 778 776 774 772 770 768 766 764 762 760 758 757 756 755 753 752 751 750 750 750 750 749 749 748 748 748 748 749 750 752 753 754 754 756 758 761 763 764 765 767 769 770 771 772 773 774 775 776 776 777 777 777
822 823 824 822 823 823 818 812 811 811 809 807 805 803 801 801 800 799 798 797 795 794 793 791 790 789 788 788 788 786 783 782 781 779 777 776 774 772 770 768 766 764 762 760 758 757 755 754 752 751 750 749 748 748 747 746 746 745 745 745 745 746 747 748 750 751 752 754 756 758 760 762 764 765 767 769 770 770 771 772 773 774 774 775 776 776
821 822 822 821 821 820 816 811 810 810 808 805 804 803 801 800 799 798 796 795 793 792 791 789 788 787 786 786 785 784 782 781 780 778 777 775 773 771 769 767 765 763 761 759 757 756 754 753 751 750 748 747 746 746 745 743 742 742 741 741 742 743 744 745 746 748 750 751 753 756 758 760 761 763 765 767 768 768 769 770 771 772 773 774 774 775
820 820 819 819 821 819 814 809 809 811 809 805 803 801 799 799 798 796 794 793 792 791 790 789 787 786 785 784 783 782 782 781 778 777 776 774 772 770 768 766 764 762 760 758 756 754 753 752 750 748 747 746 745 744 743 741 740 738 738 738 738 739 740 741 743 746 747 749 751 753 755 757 758 760 762 764 765 766 767 768 769 771 771 772 773 773
816 814 813 815 816 814 809 806 807 810 809 804 800 799 798 797 796 794 793 792 791 789 789 788 786 785 784 783 781 781 781 779 777 776 775 772 771 769 767 765 763 761 759 757 755 753 751 749 748 746 745 743 742 741 740 739 737 736 735 735 735 736 737 739 741 744 746 748 751 752 753 754 756 758 760 762 763 764 765 766 768 769 770 771 772 772
Wind_Speed
3 1 3 4 6 7 8 8 9 9 7 6 6 3 5 7 5 6 7 9 7 9 9 9 9 10 9 10 8 6 9 13 15 14 13 13 12 11 12 11 11 10 9 14 20 23 24 25 25 23 22 21 19 18 18 18 17 16 14 12 12 12 12 12 13 12 10 10 10 9 9 8 8 7 6 6 5 4 3 2 1 1 2 4 6 7
3 2 7 8 9 10 10 9 8 7 7 8 7 5 6 6 5 7 6 6 2 6 6 7 9 9 9 9 6 9 12 13 16 17 15 15 13 12 13 13 11 8 8 12 16 19 23 24 26 26 24 23 22 21 20 19 18 16 14 14 13 13 12 13 14 13 11 10 9 8 9 9 9 7 5 5 4 3 1 0 1 2 2 3 5 6
2 4 11 12 10 9 8 8 7 7 8 8 6 3 5 6 4 6 5 6 4 1 3 5 7 8 9 8 6 12 16 15 18 21 19 18 15 13 13 13 11 10 10 11 11 16 21 23 25 26 25 24 23 22 21 19 19 17 15 15 15 14 13 13 13 13 13 11 9 8 8 9 8 7 5 4 3 2 2 1 2 2 3 3 4 4
3 6 12 12 8 7 7 8 7 4 4 5 3 1 4 5 3 4 5 5 3 3 3 4 5 6 6 4 5 11 14 14 17 19 20 19 18 17 16 15 14 14 13 12 11 13 18 21 23 25 25 25 23 22 21 20 19 18 17 16 15 15 14 13 13 13 13 11 9 9 9 8 7 7 6 4 3 2 1 2 2 2 3 3 3 4
8 10 9 8 7 8 9 8 3 2 2 4 4 3 4 5 4 4 5 5 3 5 3 4 1 5 5 4 5 7 7 9 12 14 15 15 15 15 14 13 15 16 15 14 13 12 15 19 22 25 27 26 25 24 23 22 21 19 17 16 15 14 14 13 13 13 13 12 11 11 11 10 8 7 6 4 3 1 0 1 2 3 4 3 3 3
8 8 3 2 4 5 7 6 3 3 2 4 4 4 4 3 3 4 5 5 5 6 5 3 1 5 4 4 6 4 4 6 8 12 14 13 11 11 12 12 12 13 14 14 15 14 14 18 20 24 27 27 27 25 24 23 21 19 17 16 15 15 14 13 13 13 13 13 12 12 12 10 9 7 5 4 3 3 2 3 3 4 5 5 4 4
4 5 5 3 3 2 0 2 2 2 2 2 4 2 1 2 2 5 6 5 2 4 6 1 2 5 5 4 7 4 5 7 6 9 11 11 11 11 12 12 11 11 11 11 12 13 14 17 19 21 25 28 28 27 25 23 21 18 17 16 16 15 14 13 12 12 12 12 11 10 10 9 8 7 6 4 4 4 3 3 3 4 5 5 6 6
4 7 8 6 5 4 4 2 2 2 5 3 5 2 4 4 4 3 5 4 1 3 4 5 2 1 4 5 7 3 2 5 6 9 11 12 14 14 12 12 13 14 13 12 12 13 14 17 20 22 26 29 29 29 27 24 22 19 18 17 17 15 13 12 11 11 11 11 11 10 9 8 7 6 6 5 4 4 4 3 3 3 4 4 5 6
2 7 9 7 5 4 3 3 5 2 2 5 4 4 3 2 2 2 4 3 1 2 4 6 3 2 3 6 5 3 2 3 4 7 12 15 15 14 13 14 14 14 14 13 14 15 14 18 21 23 25 27 30 30 28 25 23 20 19 18 17 15 13 12 12 11 10 10 10 10 9 9 7 7 7 6 5 5 4 5 4 4 4 4 4 4
1 3 6 4 4 4 3 5 5 1 2 5 1 3 2 2 2 2 4 2 3 3 3 6 2 2 3 6 5 4 4 5 5 4 9 14 15 15 14 14 13 11 11 12 13 13 15 19 22 22 23 25 28 29 27 25 24 22 21 20 18 16 14 12 12 11 10 10 10 10 8 8 8 7 7 6 6 5 5 5 5 5 5 5 5 5
4 5 3 1 2 3 3 4 4 1 3 2 4 4 3 3 4 2 2 3 2 3 5 6 2 3 1 5 2 2 1 4 5 3 5 11 14 15 14 13 13 12 11 11 9 10 14 19 21 21 22 23 25 27 27 26 25 24 23 21 19 17 15 13 13 12 10 9 9 8 7 6 7 6 6 6 6 6 5 6 5 6 6 7 7 7
8 6 4 4 3 3 6 5 5 5 2 4 4 4 4 4 4 4 5 4 0 4 6 5 4 3 2 4 4 2 3 4 4 3 5 11 12 12 11 11 13 12 11 10 9 9 11 14 17 20 21 23 25 26 27 27 26 25 23 21 20 18 16 15 14 12 10 8 7 7 5 5 5 5 6 6 6 5 5 6 6 6 7 8 9 9
6 4 6 6 4 8 9 6 6 7 6 5 3 4 4 3 3 3 4 2 2 5 5 3 7 2 4 4 6 4 5 5 4 4 3 10 12 12 11 11 11 10 10 10 9 9 10 10 14 19 21 23 25 26 27 28 27 26 24 22 21 19 17 16 15 13 11 9 7 7 6 4 4 5 5 5 5 5 5 5 6 7 8 8 9 9
5 6 7 6 5 8 9 5 4 5 6 7 4 2 1 0 2 2 2 2 3 4 5 4 5 2 3 3 5 1 6 5 3 6 4 5 12 13 13 11 10 10 11 10 9 10 10 11 15 19 22 23 25 27 28 28 28 26 24 23 22 21 19 17 15 14 13 11 8 7 6 4 4 5 4 5 4 4 5 5 6 7 7 8 9 9
3 5 4 5 4 6 7 2 2 5 6 6 3 0 0 2 2 3 3 2 4 4 4 5 2 1 1 3 5 4 2 4 5 6 8 3 6 11 11 10 11 11 10 10 10 11 11 13 18 20 22 23 25 27 28 28 28 26 25 25 23 22 21 19 17 15 14 13 10 8 7 5 3 3 4 3 4 4 4 5 5 7 8 8 9 8
2 4 4 5 5 3 7 4 4 5 3 4 4 2 2 1 3 1 2 4 2 2 3 3 2 3 3 4 4 1 1 4 7 9 12 12 4 7 10 10 11 11 10 10 10 11 11 15 19 21 22 23 25 27 28 28 29 28 27 26 25 23 22 20 18 17 16 14 12 10 8 5 3 2 2 2 2 2 3 5 6 7 8 8 8 9
2 4 6 8 6 5 9 10 6 5 1 2 4 3 4 4 3 2 3 1 2 1 3 2 2 4 3 4 6 4 2 3 7 8 10 11 6 4 8 9 10 10 10 11 11 11 12 15 19 22 24 26 26 28 29 30 30 30 29 28 26 24 22 21 20 18 16 15 13 11 9 7 5 3 1 1 1 1 3 5 6 7 7 7 8 10
0 5 5 5 6 6 10 10 5 6 2 1 2 4 6 4 2 3 1 2 3 2 4 2 3 4 3 3 5 6 6 6 5 8 8 7 5 3 6 7 9 10 10 11 12 12 12 15 19 22 25 28 30 31 32 32 32 31 30 30 28 26 25 23 22 20 17 16 15 13 11 9 7 5 3 3 2 2 4 4 4 5 6 6 8 9
1 3 5 4 6 8 10 7 4 4 4 4 2 2 3 2 2 2 0 1 2 2 3 4 3 2 2 3 4 4 4 6 5 6 6 5 3 3 5 5 6 8 8 8 10 10 10 14 19 22 24 27 30 32 32 32 31 30 30 29 28 28 27 24 22 21 18 16 16 15 12 10 9 8 5 4 3 3 4 4 5 5 5 6 7 9
1 1 5 4 6 8 7 5 4 5 2 3 2 3 3 0 2 1 1 2 1 2 2 3 3 2 3 3 4 4 3 4 3 5 6 5 4 3 6 5 6 7 8 8 8 9 10 13 20 24 25 27 30 31 31 31 30 30 31 30 29 28 26 25 24 21 19 18 17 16 13 11 11 9 6 4 3 4 4 4 5 5 4 5 7 8
2 2 4 5 6 5 3 3 3 5 3 1 3 4 2 1 1 1 2 1 2 1 1 2 3 3 3 3 4 6 6 4 3 3 2 1 2 3 4 5 6 7 8 8 9 10 9 13 19 23 25 26 27 27 28 29 30 30 30 29 29 28 27 27 25 22 21 19 19 17 15 13 13 10 7 5 3 4 4 4 5 4 4 6 7 7
1 1 2 4 4 3 4 4 3 1 2 2 2 1 1 0 2 1 2 2 1 2 2 1 3 5 3 3 3 6 7 8 8 5 1 1 2 3 4 4 7 7 8 9 10 10 9 11 17 20 22 22 22 24 26 28 29 28 28 29 28 29 29 28 26 24 22 21 20 19 16 15 14 10 7 5 3 4 4 4 4 3 5 6 7 7
2 2 1 3 3 6 8 4 3 5 6 5 3 1 1 2 3 2 2 2 2 0 2 1 2 4 3 3 4 6 6 7 8 7 6 6 5 4 3 1 4 7 9 10 9 9 9 13 18 21 22 22 24 25 26 27 28 27 29 31 30 30 30 29 27 25 24 23 23 19 16 16 14 10 8 6 3 3 3 4 4 4 6 7 6 6
1 2 2 3 4 6 5 2 4 4 6 4 2 1 3 2 2 3 2 1 0 1 1 1 3 4 3 3 5 7 9 9 7 7 8 7 7 8 8 5 2 1 6 9 9 8 9 13 16 18 20 22 24 24 25 27 27 28 31 31 29 29 30 30 28 26 25 25 22 18 15 15 13 10 8 6 4 4 4 4 4 5 6 6 4 4
1 1 2 3 4 5 3 4 4 5 3 2 4 2 1 1 2 1 2 2 1 3 3 2 3 3 3 4 5 7 10 11 10 9 8 7 7 8 9 9 7 3 1 6 8 6 7 9 11 14 18 21 22 24 25 26 26 27 30 30 29 29 31 31 29 26 27 25 20 16 16 15 12 10 8 6 4 4 4 5 6 7 5 3 2 3
1 1 1 2 3 5 4 4 5 4 3 3 4 4 1 3 3 1 1 1 2 2 3 2 4 4 4 4 5 5 5 7 9 9 9 8 7 7 8 10 10 6 2 2 5 5 5 6 8 13 17 20 22 23 23 25 28 29 28 29 32 31 30 30 29 28 27 23 19 17 17 14 12 10 7 5 5 4 5 7 7 5 1 1 2 2
2 1 1 3 3 3 4 5 5 2 3 6 6 7 4 4 5 3 2 2 2 1 3 4 4 5 6 5 4 5 5 6 6 7 8 9 9 8 8 9 9 7 5 3 1 1 4 5 7 10 13 15 13 11 8 10 16 20 21 27 32 29 26 26 27 27 24 21 20 19 16 13 11 9 6 5 4 4 7 7 4 1 1 0 1 0
3 2 2 4 5 6 7 8 8 4 4 8 9 9 6 1 5 4 2 3 1 1 4 3 1 4 6 6 6 7 7 6 6 6 6 8 8 8 7 8 9 8 7 5 3 3 3 6 7 6 9 14 15 16 14 13 15 14 15 21 25 24 25 27 27 25 22 20 21 19 15 12 10 8 5 3 3 5 7 4 3 3 3 3 2 1
4 1 3 4 4 6 7 8 9 5 5 7 6 7 8 5 2 4 5 4 3 2 5 4 6 7 6 6 7 7 6 7 8 6 5 6 7 6 4 6 8 7 8 8 5 3 1 2 2 2 9 13 16 19 20 21 22 18 17 22 25 25 28 30 28 23 21 22 21 17 13 11 9 6 4 3 4 6 4 5 6 5 4 3 2 4
3 1 4 3 4 5 5 7 7 5 4 4 5 6 7 6 3 3 4 3 4 5 6 7 10 8 4 6 8 7 6 6 6 4 3 4 6 6 4 3 5 7 7 8 7 5 2 4 5 8 11 12 14 16 17 20 23 22 24 27 27 26 29 31 28 25 24 24 20 15 13 10 8 6 4 4 5 4 6 7 6 5 4 3 5 6
3 2 3 2 4 5 5 6 6 5 4 2 6 8 8 7 6 4 3 3 2 3 4 6 6 4 3 6 7 7 6 6 6 5 4 5 5 5 4 4 5 6 8 8 8 6 3 5 7 8 12 14 17 20 22 25 26 27 28 28 27 29 32 32 30 28 26 23 18 14 12 9 7 5 4 4 5 7 8 8 6 5 4 4 6 8
1 2 3 4 4 5 4 5 8 8 3 4 6 10 9 7 5 4 2 3 3 3 4 4 3 2 4 6 6 6 7 8 7 7 6 6 5 5 5 4 5 5 6 8 8 6 2 4 5 6 10 14 19 22 23 24 25 26 26 27 29 30 29 28 29 28 26 21 17 15 11 8 6 4 3 5 8 9 8 7 6 4 4 5 7 9
1 0 1 2 2 5 5 7 9 6 5 4 4 5 3 3 3 1 1 2 3 2 2 3 3 3 4 5 6 7 8 8 8 7 6 6 6 6 5 6 5 4 4 7 8 7 4 0 3 5 9 12 15 19 23 25 25 25 25 27 27 24 23 26 28 27 23 19 17 13 9 7 7 6 6 9 10 9 8 6 4 3 4 5 7 9
1 2 2 1 1 3 7 8 5 5 5 1 3 4 3 3 3 2 2 4 5 2 1 2 2 4 5 5 5 6 6 6 6 6 5 5 5 6 6 7 6 5 4 5 7 7 6 5 1 4 8 10 12 15 18 23 25 25 26 27 26 24 25 26 26 24 21 18 15 11 9 9 9 8 10 11 11 9 7 4 3 3 3 5 7 9
0 1 1 1 2 2 5 6 6 4 1 2 5 6 5 5 4 3 4 5 5 3 2 2 4 5 5 5 5 5 6 6 6 6 6 6 6 6 7 7 7 6 5 6 6 6 7 9 5 1 3 6 10 12 13 18 21 22 24 25 26 28 28 26 24 23 20 17 14 11 11 11 9 10 12 12 10 8 5 3 2 1 2 5 7 9
3 2 1 1 1 1 3 4 2 0 1 1 4 6 4 4 4 4 3 3 4 4 4 4 6 6 6 7 7 5 6 6 5 5 5 7 8 6 6 7 7 6 6 6 6 6 7 8 8 7 5 3 7 10 10 15 19 20 21 25 27 28 27 26 24 21 17 15 14 12 12 11 11 12 13 12 9 6 3 2 1 1 1 3 6 9
5 3 1 1 1 1 1 2 2 1 2 3 5 4 2 2 3 2 1 3 4 4 4 5 6 7 7 7 7 7 6 4 4 4 5 6 7 7 7 8 8 8 8 9 9 7 5 5 7 10 10 8 6 7 8 12 19 22 22 24 26 27 26 25 22 18 15 15 14 13 12 12 13 14 13 11 9 5 2 2 1 0 1 3 6 8
3 2 2 1 1 1 1 2 2 3 3 2 6 7 4 4 4 3 1 2 4 5 5 4 6 7 7 7 7 7 5 3 3 5 5 6 7 7 7 9 10 11 12 13 13 10 4 3 5 6 7 8 6 5 8 12 19 24 23 23 25 25 25 22 18 16 16 16 15 14 13 14 15 15 14 11 8 5 2 1 1 1 2 4 6 5
5 3 4 3 2 2 3 1 2 1 1 3 7 9 8 5 3 3 1 2 4 5 5 5 6 7 7 7 7 5 5 3 3 5 6 6 6 6 6 8 11 14 15 15 16 11 4 1 2 1 1 2 1 5 10 14 17 19 19 19 19 19 19 19 18 18 18 17 15 14 15 16 16 15 14 11 8 5 3 2 1 3 5 4 4 3
5 4 3 4 2 1 1 0 2 2 2 5 6 8 9 6 2 5 3 4 5 5 6 5 6 7 7 6 5 3 2 3 4 6 8 7 7 7 8 8 10 13 15 16 15 10 6 4 3 4 3 4 6 9 12 15 15 15 16 17 17 18 20 20 20 21 19 16 14 16 17 16 15 14 13 11 8 6 5 4 3 5 6 5 2 2
3 2 2 3 1 2 0 1 2 2 3 5 6 8 9 4 6 4 2 5 5 7 7 5 6 8 6 5 4 3 4 6 7 8 9 9 8 9 11 12 13 14 14 16 15 11 10 8 6 7 7 6 9 12 14 15 14 16 19 21 22 25 26 23 21 20 17 15 17 19 18 16 15 14 13 10 8 8 7 6 5 7 7 5 3 1
2 2 2 2 1 2 0 1 2 2 3 5 5 7 5 3 2 2 5 5 5 7 7 6 7 7 6 5 5 5 5 8 8 8 8 9 8 8 11 14 15 14 14 16 16 13 12 13 11 11 12 11 10 12 15 16 16 19 21 22 25 27 25 22 21 20 18 19 21 21 18 17 16 15 12 10 9 9 9 7 6 9 9 7 5 3
1 0 2 2 0 1 1 2 2 2 4 4 2 5 3 2 3 5 4 4 6 6 6 6 6 6 6 5 6 7 7 8 8 7 7 8 7 7 9 11 12 13 15 16 16 14 11 12 12 12 13 15 13 13 16 19 21 22 21 23 26 26 24 23 22 22 23 24 24 21 19 18 17 15 12 9 9 10 9 8 9 11 10 8 5 3
1 1 1 2 1 1 1 1 1 3 5 3 1 2 2 3 5 4 3 4 6 5 5 5 5 7 6 6 6 7 7 7 8 7 7 7 7 7 8 10 12 14 16 17 15 10 7 6 7 8 9 11 11 11 12 17 22 23 23 24 25 24 24 24 24 25 26 25 23 21 19 18 17 14 11 9 11 11 10 10 13 13 11 8 5 3
3 3 2 2 2 2 3 5 5 4 5 3 3 4 6 6 6 5 5 5 5 5 4 4 6 7 7 6 6 6 6 7 7 7 7 7 8 8 8 10 12 12 13 14 11 6 5 7 7 7 9 10 10 11 12 13 18 23 26 26 26 24 23 22 24 27 27 25 23 21 19 19 17 13 11 11 12 11 11 13 16 15 12 9 6 3
4 3 3 1 3 3 3 4 4 3 5 5 4 5 6 6 6 5 5 5 5 5 5 5 6 7 7 5 5 5 7 7 7 7 7 7 7 9 9 11 14 14 12 10 9 9 10 11 10 9 11 12 12 12 13 13 15 21 25 26 25 24 22 23 26 29 28 26 23 20 20 19 16 14 13 11 10 11 13 16 18 16 13 10 6 3
2 1 2 1 2 2 3 4 3 3 6 7 5 5 5 5 5 5 5 5 5 6 6 6 6 6 6 5 5 6 8 8 7 7 7 7 7 8 8 10 13 15 14 12 12 13 13 12 11 11 12 13 14 15 15 15 17 19 21 22 23 24 24 26 29 29 28 24 20 20 21 20 17 16 14 11 11 13 15 17 19 17 14 11 7 3
1 1 1 2 2 2 4 7 5 5 7 6 5 5 5 6 6 5 4 5 5 6 6 6 6 5 3 4 6 7 7 8 7 6 7 7 7 7 8 10 13 16 17 16 15 15 13 12 13 13 13 15 17 18 18 18 18 19 20 21 23 25 27 30 30 30 27 22 19 22 23 20 18 17 15 13 14 15 15 17 19 18 15 12 8 4
1 2 2 2 1 2 5 6 5 5 6 7 6 6 6 6 6 6 6 5 5 6 6 7 8 5 0 1 6 6 6 7 7 6 7 7 6 7 9 13 15 17 18 19 19 17 16 14 15 15 16 17 19 20 20 19 18 18 18 20 23 25 30 31 30 30 27 22 22 24 22 20 19 17 15 16 16 15 14 17 19 18 15 12 8 5
2 3 2 1 1 3 5 5 4 2 4 7 8 8 8 6 5 4 5 6 6 7 6 7 9 6 1 5 7 5 4 6 7 6 6 6 7 10 13 15 17 18 19 20 19 16 15 15 15 16 17 19 21 22 20 19 18 17 17 18 20 25 30 31 30 28 25 23 24 24 21 20 20 17 16 19 17 14 14 17 18 18 15 11 9 7
3 4 4 3 3 5 7 7 5 3 4 7 9 8 8 6 4 4 6 6 7 8 7 6 7 6 4 6 9 7 5 6 7 7 6 6 10 14 15 16 16 17 19 20 18 15 14 15 15 15 16 18 20 21 21 20 19 17 17 18 21 25 30 31 29 24 20 20 22 22 21 22 20 17 17 19 17 15 16 17 18 18 15 11 10 9
Wind_Direction
135 156 264 226 227 231 234 221 214 234 234 244 269 262 256 259 266 262 259 265 223 185 202 186 192 211 207 222 211 140 134 142 148 158 162 165 168 168 170 174 172 168 165 159 157 158 156 154 156 158 160 163 164 166 171 173 171 172 176 179 174 173 180 178 170 165 162 156 149 142 135 128 124 122 127 130 125 132 148 157 155 161 202 240 263 274
89 187 245 231 225 228 236 236 227 242 254 264 264 256 269 263 257 257 261 302 279 181 212 191 191 220 216 223 214 142 142 158 160 163 171 171 172 174 171 172 171 165 157 154 158 159 157 156 157 158 160 163 164 166 172 174 173 176 180 183 178 175 180 180 178 175 168 167 164 155 147 142 137 133 134 133 130 134 142 213 289 284 263 255 265 277
355 238 246 238 229 234 250 257 249 250 253 257 249 234 271 264 275 283 281 330 345 204 257 213 197 232 232 222 199 163 162 176 175 169 171 172 172 175 173 168 166 165 159 161 165 162 160 159 158 159 161 166 167 168 174 176 174 175 178 183 183 181 181 181 184 182 175 175 177 172 163 156 149 139 133 137 148 168 187 233 296 304 279 261 260 271
273 254 249 245 240 240 259 266 256 255 260 241 212 186 263 265 295 300 294 323 321 271 263 203 210 259 267 259 216 191 178 177 181 175 169 172 173 174 174 168 165 167 165 164 170 165 161 161 161 163 164 167 169 170 175 177 175 175 176 179 182 185 185 183 184 184 183 180 174 168 161 158 152 140 140 148 159 177 210 259 288 312 308 295 289 286
240 252 251 250 243 238 251 259 215 134 326 268 221 210 249 281 287 262 284 314 338 315 279 154 189 290 283 266 243 227 205 178 174 171 171 176 175 168 167 169 169 169 166 166 172 173 166 165 167 166 165 167 169 171 175 177 177 176 177 181 184 186 186 184 182 182 182 175 165 158 153 150 148 146 151 154 147 143 70 353 332 331 336 334 334 339
240 261 289 285 252 235 237 236 187 166 310 307 267 234 227 260 296 314 338 360 23 333 283 150 137 286 284 258 251 239 220 203 172 165 176 179 170 162 164 170 176 173 168 169 173 175 170 166 167 166 166 166 168 173 176 178 179 178 180 185 187 187 183 178 176 174 175 171 166 161 156 153 150 142 130 119 102 82 76 53 19 2 2 358 356 1
272 314 25 358 309 37 143 237 230 185 75 320 277 250 175 111 40 358 16 46 48 287 282 353 183 264 315 287 254 225 192 210 189 160 168 172 168 173 173 170 175 176 173 176 177 174 169 165 166 169 169 168 169 172 175 177 178 179 182 184 185 183 177 174 172 170 171 168 165 160 154 149 142 128 110 105 93 72 73 69 32 13 12 4 0 3
291 339 8 355 342 19 17 335 281 108 94 263 257 92 64 60 59 8 42 73 217 256 314 354 99 203 306 273 262 261 193 228 209 162 161 173 178 179 176 173 178 178 174 176 179 176 172 170 171 174 173 170 168 168 171 174 176 178 180 180 179 175 173 173 169 169 171 167 162 157 148 135 126 118 105 99 90 76 70 70 56 30 20 9 7 11
295 4 345 334 346 353 336 288 287 42 91 255 236 116 100 96 118 111 80 78 359 19 333 322 29 91 272 278 308 350 57 323 270 184 171 177 178 177 178 181 182 180 175 177 180 177 173 173 175 176 173 169 167 168 171 173 174 176 177 175 173 169 170 170 166 166 168 165 159 152 143 129 118 110 101 92 83 74 63 63 59 36 21 2 357 359
344 339 294 310 351 330 300 290 308 8 248 264 200 109 104 84 74 86 96 93 22 18 279 283 349 81 267 285 329 19 38 352 312 230 186 180 178 177 181 183 180 175 177 184 184 176 168 170 174 174 170 167 167 170 171 172 172 173 174 173 170 168 170 172 169 163 158 159 155 144 136 124 117 109 98 87 78 71 58 51 43 28 16 355 339 329
317 306 274 353 315 284 297 320 343 306 253 308 46 39 9 14 23 29 68 82 30 309 257 264 305 100 269 285 303 41 310 273 296 293 199 187 183 181 179 178 177 174 178 185 181 169 162 165 170 168 166 166 167 169 170 170 171 171 173 174 171 171 175 178 176 166 157 158 155 146 134 120 113 103 86 76 69 59 43 36 29 20 6 352 342 327
335 346 345 313 300 355 352 347 348 327 345 58 57 37 4 339 5 12 3 36 59 268 257 283 343 82 168 269 272 275 270 271 313 338 192 189 186 186 181 175 178 177 174 175 169 162 157 159 165 166 166 166 166 168 169 170 171 173 175 175 172 174 178 180 179 174 172 172 168 162 147 122 109 92 73 64 54 38 29 26 17 6 355 352 353 347
329 317 317 315 348 27 9 346 345 344 6 26 25 54 43 339 357 3 338 343 230 250 260 337 18 19 208 241 255 289 339 321 325 17 158 188 184 183 186 179 173 170 168 169 164 163 166 165 168 168 167 168 169 170 171 172 174 176 178 178 176 177 180 180 179 179 184 185 181 176 164 136 110 92 67 53 43 29 22 11 358 353 354 357 359 356
327 305 332 355 354 18 28 20 358 337 330 337 347 56 66 76 31 306 275 307 278 260 277 336 16 310 273 263 227 232 358 330 327 29 52 194 194 186 185 175 165 166 165 166 166 170 177 173 172 172 171 172 173 173 173 174 177 179 181 183 184 184 185 185 184 188 193 194 191 186 183 161 115 93 69 54 39 25 12 355 351 353 354 356 353 350
333 300 333 20 330 352 30 42 296 298 304 320 325 73 192 161 164 250 216 203 261 267 296 320 327 204 217 259 216 169 18 7 14 21 37 21 215 186 174 164 163 168 165 167 173 176 179 176 174 174 174 175 176 175 176 177 180 182 184 187 190 188 188 189 192 196 199 200 201 197 193 186 137 95 75 58 29 14 2 350 350 350 347 347 347 347
338 268 284 340 318 5 22 347 328 339 317 307 321 31 19 218 175 244 218 179 196 276 301 295 260 209 205 262 278 196 165 63 43 23 26 14 343 168 163 168 169 173 169 168 173 175 179 178 177 176 175 178 179 178 179 180 183 185 187 190 194 193 191 193 197 200 201 204 208 204 202 204 183 136 87 66 38 12 352 346 343 340 340 341 341 341
352 284 292 326 328 46 19 341 2 32 315 296 347 3 317 275 146 97 293 311 71 300 273 251 252 296 317 311 326 356 4 55 68 62 41 13 2 147 167 177 174 176 172 169 174 178 178 178 180 180 178 179 180 180 182 185 187 188 189 192 195 196 196 197 200 203 204 207 210 210 211 214 207 198 163 141 160 342 338 334 333 334 339 340 339 340
300 291 294 333 338 3 356 339 35 75 66 36 355 312 312 316 86 85 307 349 17 271 273 274 245 291 320 297 320 4 15 6 57 91 71 21 4 164 177 182 182 180 173 173 177 178 179 181 183 184 183 183 183 183 184 187 189 191 192 194 196 198 199 200 202 204 206 208 209 211 216 219 217 215 204 197 224 314 331 323 324 330 333 337 342 342
132 304 299 10 3 336 343 353 35 55 69 115 138 328 7 12 349 8 44 292 302 266 290 300 281 273 231 240 305 349 11 353 13 78 71 18 359 153 158 171 184 181 174 176 179 182 184 185 185 186 188 187 185 186 187 188 190 192 194 197 199 201 202 202 202 204 208 209 211 217 222 222 218 216 214 217 245 309 325 320 324 324 322 333 341 337
77 2 285 340 7 336 345 19 359 330 357 119 101 37 42 132 243 283 210 199 241 257 280 303 317 295 240 263 316 331 330 313 343 65 65 15 3 129 152 170 179 179 180 179 183 190 190 189 191 190 190 190 188 188 188 188 190 192 194 197 200 202 203 202 203 206 209 210 216 223 226 224 218 215 220 226 259 312 323 318 315 313 321 335 334 328
29 62 269 309 358 353 351 9 325 308 316 27 48 41 14 324 349 313 257 199 157 194 249 300 298 273 280 330 347 8 7 334 351 55 96 41 33 103 141 176 185 180 185 186 188 194 195 195 195 193 194 193 190 189 188 188 190 192 194 196 199 200 201 201 203 206 208 213 219 224 227 224 215 213 221 228 270 310 316 307 300 299 319 330 327 323
45 99 263 309 350 343 298 307 318 22 87 88 87 61 288 161 67 11 282 300 54 124 167 262 283 268 282 330 355 25 16 356 3 12 301 315 35 78 106 170 194 190 192 195 194 196 195 193 193 194 195 193 191 191 190 190 190 191 192 195 200 201 200 202 203 205 210 215 218 223 229 222 211 211 216 221 269 304 302 292 282 293 313 319 320 318
136 107 25 297 288 280 285 317 61 91 95 103 120 131 168 132 113 152 233 306 355 111 171 175 258 259 269 320 352 14 9 356 3 11 3 354 355 16 37 184 198 196 201 202 199 199 194 191 191 191 190 191 193 194 192 191 191 190 191 196 200 201 201 203 205 207 213 215 216 223 228 216 207 209 211 218 261 290 286 276 268 294 307 306 310 313
49 64 4 294 280 283 292 37 61 62 78 69 8 150 166 175 154 168 173 135 226 241 163 172 257 261 272 322 358 2 357 352 350 4 9 357 353 358 346 329 332 213 203 202 204 206 198 191 188 188 190 192 195 195 193 192 192 191 192 196 199 200 204 206 206 209 213 213 216 220 218 206 202 208 214 224 256 274 271 262 267 293 295 292 306 324
344 16 7 339 331 325 348 28 352 345 34 12 308 279 186 146 103 64 63 97 231 231 173 184 250 251 280 332 8 3 351 345 336 342 356 352 353 353 338 325 323 332 164 193 207 212 206 194 186 188 191 191 194 196 194 192 193 194 194 194 196 201 206 206 207 209 210 211 212 210 203 198 201 209 216 228 259 277 273 268 281 289 281 281 324 337
72 170 83 46 344 328 339 332 310 314 340 325 291 285 272 156 154 115 64 163 241 217 176 204 254 264 300 347 21 9 343 332 324 328 337 338 341 342 336 329 319 325 13 199 211 216 214 198 193 196 194 193 195 194 194 194 193 194 193 192 196 203 205 203 204 207 208 209 208 203 197 195 203 209 216 242 278 290 282 281 285 282 255 320 335 325
87 80 130 152 183 249 261 265 263 264 310 299 290 291 282 188 169 133 113 202 220 225 219 228 257 294 313 339 359 334 314 309 308 318 329 328 328 331 333 331 325 335 356 1 38 286 252 208 204 205 190 181 175 167 178 198 194 193 192 190 194 200 201 202 205 205 205 207 203 198 195 196 205 212 227 264 294 294 287 283 269 199 144 185 214 187
81 359 271 182 192 220 227 247 262 259 260 272 282 294 299 243 154 148 201 221 166 340 258 237 5 325 304 312 321 308 306 310 307 309 315 312 313 322 330 327 326 337 343 349 30 17 286 231 226 209 156 143 142 152 172 191 197 202 200 193 194 196 198 205 211 210 206 202 196 193 195 199 206 216 237 270 293 289 285 261 181 161 160 163 145 61
112 307 251 196 225 242 232 254 269 264 249 265 292 313 326 346 155 200 237 221 162 227 263 296 331 314 304 321 318 306 308 309 301 295 290 292 297 298 302 311 317 331 337 333 342 6 10 231 243 123 123 136 148 158 171 185 193 200 201 197 197 198 199 204 210 210 202 194 191 191 193 196 201 215 240 273 281 277 253 183 163 159 150 130 72 34
95 277 253 240 279 272 261 268 271 271 278 305 353 359 359 2 332 273 274 243 207 233 265 301 305 300 325 338 319 316 318 305 301 307 295 296 304 301 301 320 326 333 333 325 325 341 58 95 97 102 114 130 140 145 160 181 192 200 204 201 197 197 199 201 204 204 195 189 190 190 189 193 202 214 241 266 258 226 180 166 158 143 125 85 47 31
48 294 284 341 334 295 276 277 283 293 295 357 27 16 15 5 347 353 343 308 283 284 304 311 300 299 343 334 321 328 332 331 341 347 332 320 320 324 341 2 1 351 337 326 327 336 23 94 108 117 125 139 152 160 175 188 193 199 206 203 195 195 199 201 202 200 193 188 188 186 185 193 199 207 236 238 199 173 165 160 145 128 102 61 38 23
32 305 330 36 358 292 278 298 307 315 348 68 37 21 22 5 352 19 354 304 311 327 335 345 339 334 334 329 333 339 341 348 348 340 339 339 333 334 342 351 2 5 343 325 318 317 342 99 115 131 145 160 171 178 188 195 195 198 202 199 193 194 198 200 199 195 189 186 183 182 186 195 198 208 219 185 166 159 154 146 132 114 77 47 29 17
149 316 354 55 337 286 303 317 315 336 33 46 5 2 11 338 337 358 269 314 335 326 354 20 8 342 330 330 339 343 345 347 339 333 338 334 328 331 335 339 342 341 327 312 307 305 299 216 143 162 176 188 196 199 201 202 201 201 198 190 187 190 197 200 196 189 184 180 178 180 187 193 193 194 182 167 161 155 147 137 122 98 67 42 26 16
197 150 167 133 161 279 308 323 343 34 49 4 281 280 277 300 329 344 12 22 22 20 50 45 332 318 323 326 329 328 328 328 322 315 312 315 323 328 330 335 331 322 311 294 299 308 301 298 303 169 192 215 228 225 214 205 202 199 191 184 182 187 197 200 192 182 177 175 177 182 183 182 180 175 169 166 161 153 144 129 109 97 62 32 24 15
66 102 126 125 161 257 319 352 24 41 66 215 247 266 276 293 312 346 28 25 12 6 14 353 317 310 312 309 304 304 307 315 322 321 319 321 321 320 325 327 318 314 304 286 293 304 297 299 308 262 211 223 230 230 218 204 198 190 185 184 185 190 196 195 184 177 176 175 176 179 177 174 173 169 167 165 160 155 144 118 99 83 27 20 15 4
144 133 99 117 222 310 3 15 18 342 206 249 288 285 285 306 325 358 15 342 333 342 337 317 306 302 299 297 297 299 298 306 320 323 318 317 311 306 305 298 292 291 283 281 292 298 298 302 292 274 279 257 223 222 218 210 202 191 186 188 189 191 191 186 179 176 176 174 176 178 176 176 177 175 171 168 166 162 138 92 44 318 353 8 359 350
133 129 80 30 327 38 6 295 278 16 20 342 318 305 285 278 298 326 302 282 296 307 301 300 302 301 299 299 302 306 303 306 319 302 283 283 290 292 288 282 282 289 295 303 311 308 315 326 297 279 288 298 270 233 220 211 200 191 186 187 187 186 183 179 176 174 175 179 182 181 180 185 186 182 178 177 176 168 126 61 39 257 299 337 339 339
83 97 109 93 2 69 70 326 334 20 23 313 293 296 287 250 237 208 195 276 278 278 285 296 294 294 298 299 305 320 332 344 331 292 274 269 276 286 293 290 290 296 300 307 312 310 316 350 326 302 305 318 306 231 204 198 189 184 182 179 176 173 171 171 172 174 180 187 188 186 189 195 195 191 189 190 191 189 177 84 56 247 271 307 317 329
34 43 93 84 19 34 72 26 311 296 252 270 281 292 303 295 233 154 73 301 262 265 290 298 290 290 294 293 303 332 347 341 314 288 279 275 274 285 293 292 299 305 303 306 311 306 288 306 330 315 331 352 62 152 165 169 168 166 165 163 161 165 170 173 178 186 191 192 189 191 196 199 199 199 200 202 205 202 192 168 206 243 249 267 286 331
23 12 39 50 2 333 103 192 255 212 236 270 281 288 299 310 83 84 22 293 271 293 308 299 290 290 288 292 308 329 300 276 281 285 288 289 286 285 280 279 292 299 298 307 314 299 262 259 250 225 228 206 175 162 161 160 157 159 168 170 173 185 192 191 191 194 194 192 192 195 198 199 199 200 202 205 205 196 187 189 206 217 222 229 245 340
3 347 27 56 1 318 56 240 277 265 244 261 275 284 294 335 60 63 286 256 275 307 307 291 285 284 281 289 301 287 255 262 276 287 297 305 304 294 289 290 294 294 293 305 311 290 260 264 263 249 251 232 197 188 188 185 183 192 197 193 192 199 203 201 198 196 194 195 196 194 195 197 198 198 199 200 199 193 187 188 198 204 207 209 217 291
353 333 347 36 8 310 275 252 296 293 237 232 267 292 308 32 60 258 246 249 277 292 293 289 282 279 281 284 276 268 272 282 290 297 305 312 312 305 302 301 300 301 303 310 315 301 270 262 264 262 260 253 226 206 207 210 211 211 207 200 200 205 207 204 201 198 195 194 192 191 193 195 195 194 193 193 195 194 192 190 191 196 197 201 215 271
164 11 316 302 289 339 349 3 3 297 245 229 299 329 352 104 209 242 256 279 276 272 282 286 274 273 283 284 279 283 289 293 299 307 311 314 315 311 313 314 313 313 312 309 310 308 289 271 272 276 273 269 255 231 218 216 218 217 212 209 212 212 209 206 204 199 194 190 188 189 192 193 191 190 190 194 197 195 195 193 187 188 194 202 220 281
171 135 296 266 236 59 13 312 219 231 241 224 174 302 268 222 226 234 248 275 276 272 275 277 275 277 274 268 276 290 296 297 304 311 311 312 313 311 317 327 329 328 324 316 310 310 310 298 298 303 300 291 281 266 244 227 223 221 217 220 222 215 208 207 204 196 190 187 186 188 191 191 190 189 186 186 186 190 199 195 185 186 194 205 227 289
214 188 172 221 234 204 214 234 241 251 263 244 199 221 251 258 256 245 239 254 268 266 256 263 282 287 278 265 274 292 300 298 299 303 300 299 304 305 310 319 323 327 331 328 322 322 331 323 315 312 311 306 297 288 277 257 238 227 224 226 223 212 206 206 201 194 189 186 186 188 189 189 188 187 185 180 181 196 211 200 189 190 198 207 228 283
230 175 132 193 270 272 255 259 273 285 286 282 259 243 250 257 257 248 239 246 257 259 261 267 279 286 285 274 273 290 298 297 296 295 293 294 302 308 311 315 318 323 331 332 324 318 315 307 295 291 296 301 301 295 284 269 249 238 235 233 225 214 209 206 201 196 190 186 185 187 189 189 187 186 189 191 198 214 217 204 196 197 201 206 222 267
273 119 119 237 293 328 303 288 289 275 277 287 290 283 276 266 257 245 236 247 263 272 277 277 275 284 297 300 296 299 302 302 299 294 296 302 305 307 310 309 309 315 321 321 316 313 307 294 283 284 287 292 299 300 288 273 260 252 247 240 230 220 211 205 202 198 190 185 185 188 191 191 188 186 192 200 206 211 210 203 201 201 203 206 213 223
290 120 168 225 228 230 260 269 274 275 277 278 269 268 284 288 281 276 267 266 275 282 283 282 279 285 326 334 306 298 304 308 303 295 300 308 305 301 305 303 302 307 312 315 317 317 309 294 282 280 282 287 296 302 297 286 275 267 257 248 238 223 210 205 203 197 189 186 189 191 193 193 190 191 197 201 201 205 206 201 202 207 210 211 214 217
168 162 179 194 244 278 281 288 305 318 311 303 284 271 276 276 272 280 287 286 291 297 298 296 290 285 189 260 280 292 306 303 299 300 305 307 304 300 301 302 302 304 307 312 319 322 320 311 297 286 283 288 295 299 297 291 285 277 265 255 243 222 207 203 200 192 188 189 191 191 193 195 194 196 201 200 200 206 208 203 205 212 213 209 210 214
162 211 204 112 344 293 271 270 278 296 298 291 283 281 285 275 254 272 298 302 302 301 297 295 299 304 272 233 253 272 292 289 296 310 307 301 301 302 303 303 302 302 306 312 318 322 321 319 311 301 293 291 294 294 292 291 290 283 269 257 242 220 207 201 195 190 190 190 189 191 194 195 196 200 203 203 204 207 203 200 205 210 210 209 208 203
187 204 188 167 217 246 254 257 242 202 238 264 269 279 286 272 248 289 308 300 291 293 290 284 294 308 301 261 255 250 253 276 297 307 302 301 306 307 310 310 304 302 306 310 312 313 312 308 303 299 296 296 298 296 292 291 293 284 263 248 236 220 207 198 191 186 183 184 188 195 198 196 198 204 204 205 208 210 204 199 202 204 204 206 206 201